Location: ?kun?ru
(16.3916°N, 80.8194°E)
Time: 01:31:34
(UTC+00:00)

Cosmos 1833 Rocket - Pass Details

Date: 19 May 2025
Orbit: 832 x 838 km, 71.0° (Epoch: 24 June)

Event Time Altitude Azimuth Distance (km) Brightness Sun altitude
Rises 13:26:20 0° 150° (SSE) 3,372 5.3 -6.4°
Reaches altitude 10° 13:31:01 10° 115° (ESE) 2,442 4.4 -7.4°
Maximum altitude 13:32:19 11° 101° (E) 2,386 4.4 -7.7°
Drops below altitude 10° 13:33:38 10° 87° (E) 2,444 4.6 -8.0°
Sets 13:38:18 0° 52° (NE) 3,381 5.6 -9.0°
